| time (UTC) | temp C | wind direction | speed KPH | gust KPH | rain 1hr cm | rain 24hr cm | rain mn cm | humidity % | barometer mb |
| 20260507143404 | 21 | 224 | 0.0 | 1.6 | 0.00 | 0.00 | 0.00 | 33 | 1013.5 |
| 20260507141406 | 20 | 224 | 0.0 | 0.0 | 0.00 | 0.00 | 0.00 | 37 | 1013.4 |
| 20260507140406 | 18 | 224 | 0.0 | 4.8 | 0.00 | 0.00 | 0.00 | 39 | 1013.4 |
| 20260507134404 | 17 | 224 | 0.0 | 1.6 | 0.00 | 0.00 | 0.00 | 42 | 1013.2 |
| 20260507131404 | 16 | 224 | 0.0 | 0.0 | 0.00 | 0.00 | 0.00 | 44 | 1012.9 |
| 20260507130404 | 16 | 224 | 0.0 | 3.2 | 0.00 | 0.00 | 0.00 | 43 | 1012.8 |
| 20260507124404 | 16 | 224 | 0.0 | 1.6 | 0.00 | 0.00 | 0.00 | 41 | 1012.7 |
| 20260507123404 | 16 | 224 | 0.0 | 1.6 | 0.00 | 0.00 | 0.00 | 41 | 1012.6 |
| 20260507121405 | 17 | 224 | 0.0 | 3.2 | 0.00 | 0.00 | 0.00 | 38 | 1012.6 |
| 20260507114404 | 17 | 223 | 3.2 | 4.8 | 0.00 | 0.00 | 0.00 | 35 | 1012.9 |
| 20260507113404 | 17 | 221 | 3.2 | 4.8 | 0.00 | 0.00 | 0.00 | 35 | 1012.9 |
| 20260507111405 | 17 | 220 | 0.0 | 3.2 | 0.00 | 0.00 | 0.00 | 36 | 1013.0 |
| 20260507110405 | 17 | 220 | 3.2 | 4.8 | 0.00 | 0.00 | 0.00 | 36 | 1013.0 |
| 20260507071404 | 20 | 219 | 0.0 | 0.0 | 0.00 | 0.00 | 0.00 | 29 | 1013.7 |
| 20260507061404 | 22 | 219 | 4.8 | 9.7 | 0.00 | 0.00 | 0.00 | 25 | 1013.6 |
| 20260507060404 | 22 | 220 | 3.2 | 9.7 | 0.00 | 0.00 | 0.00 | 26 | 1013.6 |
| 20260507054404 | 22 | 225 | 3.2 | 4.8 | 0.00 | 0.00 | 0.00 | 27 | 1013.7 |
| 20260507053404 | 22 | 225 | 0.0 | 4.8 | 0.00 | 0.00 | 0.00 | 28 | 1013.7 |
| 20260507051406 | 22 | 225 | 1.6 | 4.8 | 0.00 | 0.00 | 0.00 | 27 | 1013.7 |
| 20260507044404 | 23 | 225 | 3.2 | 4.8 | 0.00 | 0.00 | 0.00 | 25 | 1013.4 |
| 20260507043405 | 23 | 225 | 3.2 | 8.0 | 0.00 | 0.00 | 0.00 | 25 | 1013.4 |
| 20260507040404 | 24 | 225 | 0.0 | 3.2 | 0.00 | 0.00 | 0.00 | 26 | 1013.0 |
| 20260507033404 | 25 | 225 | 1.6 | 4.8 | 0.00 | 0.00 | 0.00 | 24 | 1012.6 |
| 20260507031405 | 26 | 225 | 3.2 | 4.8 | 0.00 | 0.00 | 0.00 | 23 | 1012.3 |
| 20260507030405 | 26 | 225 | 3.2 | 11.3 | 0.00 | 0.00 | 0.00 | 22 | 1012.2 |
| 20260507024404 | 26 | 219 | 4.8 | 9.7 | 0.00 | 0.00 | 0.00 | 21 | 1011.8 |
| 20260507023404 | 26 | 219 | 6.4 | 16.1 | 0.00 | 0.00 | 0.00 | 21 | 1011.7 |
| 20260507021404 | 27 | 237 | 8.0 | 16.1 | 0.00 | 0.00 | 0.00 | 21 | 1011.5 |
| 20260506223404 | 31 | 222 | 4.8 | 20.9 | 0.00 | 0.00 | 0.00 | 19 | 1012.3 |
| 20260506221405 | 30 | 302 | 3.2 | 16.1 | 0.00 | 0.00 | 0.00 | 18 | 1012.5 |
| 20260506220404 | 31 | 285 | 6.4 | 14.5 | 0.00 | 0.00 | 0.00 | 18 | 1012.6 |
| 20260506214404 | 31 | 224 | 4.8 | 12.9 | 0.00 | 0.00 | 0.00 | 18 | 1013.0 |
| 20260506213403 | 31 | 166 | 6.4 | 19.3 | 0.00 | 0.00 | 0.00 | 19 | 1013.2 |
| 20260506211404 | 30 | 238 | 4.8 | 20.9 | 0.00 | 0.00 | 0.00 | 19 | 1013.6 |
| 20260506203404 | 31 | 254 | 8.0 | 19.3 | 0.00 | 0.00 | 0.00 | 19 | 1014.2 |
| 20260506201406 | 29 | 197 | 3.2 | 12.9 | 0.00 | 0.00 | 0.00 | 21 | 1014.3 |
| 20260506200405 | 30 | 237 | 4.8 | 20.9 | 0.00 | 0.00 | 0.00 | 19 | 1014.4 |
| 20260506194405 | 29 | 157 | 3.2 | 12.9 | 0.00 | 0.00 | 0.00 | 20 | 1014.6 |
| 20260506191405 | 28 | 143 | 1.6 | 9.7 | 0.00 | 0.00 | 0.00 | 21 | 1014.9 |
| 20260506190404 | 28 | 286 | 3.2 | 12.9 | 0.00 | 0.00 | 0.00 | 21 | 1015.0 |
| 20260506184404 | 28 | 176 | 3.2 | 16.1 | 0.00 | 0.00 | 0.00 | 21 | 1015.2 |
| 20260506183404 | 28 | 188 | 6.4 | 16.1 | 0.00 | 0.00 | 0.00 | 22 | 1015.4 |
| 20260506181404 | 27 | 250 | 8.0 | 16.1 | 0.00 | 0.00 | 0.00 | 24 | 1015.6 |
| 20260506180404 | 26 | 254 | 4.8 | 11.3 | 0.00 | 0.00 | 0.00 | 26 | 1015.6 |
| 20260506174404 | 26 | 235 | 1.6 | 12.9 | 0.00 | 0.00 | 0.00 | 26 | 1015.8 |
| 20260506173404 | 26 | 240 | 4.8 | 12.9 | 0.00 | 0.00 | 0.00 | 27 | 1015.8 |
| 20260506171405 | 25 | 225 | 4.8 | 12.9 | 0.00 | 0.00 | 0.00 | 28 | 1015.8 |
| 20260506170405 | 25 | 201 | 1.6 | 12.9 | 0.00 | 0.00 | 0.00 | 29 | 1015.8 |
| 20260506164406 | 23 | 305 | 4.8 | 8.0 | 0.00 | 0.00 | 0.00 | 30 | 1015.8 |
| 20260506163404 | 23 | 200 | 3.2 | 8.0 | 0.00 | 0.00 | 0.00 | 31 | 1015.7 |
| 20260506161404 | 22 | 196 | 0.0 | 8.0 | 0.00 | 0.00 | 0.00 | 32 | 1015.5 |
| 20260506160404 | 22 | 197 | 1.6 | 4.8 | 0.00 | 0.00 | 0.00 | 34 | 1015.6 |
| 20260506154405 | 20 | 320 | 1.6 | 4.8 | 0.00 | 0.00 | 0.00 | 35 | 1015.5 |
| 20260506153404 | 20 | 320 | 1.6 | 4.8 | 0.00 | 0.00 | 0.00 | 35 | 1015.7 |
| 20260506150404 | 18 | 317 | 1.6 | 8.0 | 0.00 | 0.00 | 0.00 | 38 | 1015.6 |
| 20260506144404 | 18 | 316 | 3.2 | 8.0 | 0.00 | 0.00 | 0.00 | 39 | 1015.6 |